User: anonymous
Location: Goodsell Observatory
(44.4617°N, 93.1522°W)
Time: 11:30:46
(UTC-05:00)
Language:

HST - Orbit

View from above orbital plane
View from above orbital plane
View from above satellite
View from above satellite

Ground track
Ground track

The orbit data is extracted from the following two-line orbital elements,

1 20580U 90037B   14274.65593259  .00003766  00000-0  24151-3 0  1266
2 20580 028.4708 057.0573 0003092 351.9245 125.6004 15.05829872140781
Epoch (UTC): 01 October 2014 15:44:32
Eccentricity: 0.0003092
inclination: 28.4708°
perigee height: 547 km
apogee height: 551 km
right ascension of ascending node: 57.0573°
argument of perigee: 351.9245°
revolutions per day: 15.05829872
mean anomaly at epoch: 125.6004°
orbit number at epoch: 14078

The dashed part of the orbit path shows where the satellite is in the earth's shadow,  

DLR